Flight Track Log - Related Links

Times and Time Zones

All times are in EDT time to prevent confusion due to time zone crossing. See the ASQ5941 flight status page for this flight to view local times or setup timezone preferences in your user account.

Time Position Orientation Groundspeed Altitude Reporting Facility
EDT Latitude Longitude Course Direction KTS MPH feet Rate Location/Type
Tue 02:50:19 PM 42.0000 -87.8833 90° East 160 184 1,800  Level Chicago TRACON
Tue 02:51:19 PM 42.0167 -87.8167 71° East 204 235 3,700 1,700 Climbing Chicago TRACON
Tue 02:52:19 PM 42.0333 -87.7333 75° East 239 275 5,200 1,700 Climbing Chicago TRACON
Tue 02:53:00 PM 42.0572 -87.3204 78° East  Level FlightAware Approximate
Tue 02:53:19 PM 42.0500 -87.6333 77° East 263 303 7,100  Level Chicago TRACON
Tue 02:54:00 PM 42.0798 -87.1734 78° East  Level FlightAware Approximate
Tue 02:54:31 PM 42.0572 -87.5264 85° East 272 313 9,000  Level Chicago Center
Tue 02:55:00 PM 42.1000 -87.0261 90° East  Level FlightAware Approximate
Tue 02:55:33 PM 42.0697 -87.4208 81° East 285 328 11,000  Level Chicago Center
Tue 02:56:35 PM 42.0861 -87.2900 80° East 294 338 13,000 1,839 Climbing Chicago Center
Tue 02:57:37 PM 42.0989 -87.1725 82° East 313 360 14,800 1,645 Climbing Chicago Center
Tue 02:58:39 PM 42.1128 -87.0581 81° East 312 359 16,400 1,452 Climbing Chicago Center
Tue 02:59:41 PM 42.1167 -86.9372 87° East 321 369 17,800 1,452 Climbing Chicago Center
Tue 03:00:43 PM 42.1214 -86.8147 87° East 327 376 19,400 1,306 Climbing Chicago Center
Tue 03:01:45 PM 42.1250 -86.6794 88° East 336 387 20,500 919 Climbing Chicago Center
Tue 03:02:47 PM 42.1306 -86.5425 87° East 361 415 21,300 677 Climbing Chicago Center
Tue 03:03:49 PM 42.1350 -86.4000 88° East 378 435 21,900 339 Climbing Chicago Center
Tue 03:04:51 PM 42.1406 -86.2192 88° East 398 458 22,000 480 Climbing Chicago Center
Tue 03:05:54 PM 42.1442 -86.0683 88° East 403 464 22,900 864 Climbing Chicago Center
Tue 03:06:56 PM 42.1422 -85.9306 91° East 401 461 23,800 968 Climbing Chicago Center
Tue 03:07:58 PM 42.1408 -85.7792 91° East 406 467 24,900 1,065 Climbing Chicago Center
Tue 03:09:00 PM 42.1400 -85.5983 90° East 405 466 26,000 871 Climbing Chicago Center
Tue 03:10:02 PM 42.1378 -85.4431 91° East 413 475 26,700 677 Climbing Chicago Center
Tue 03:11:04 PM 42.1367 -85.2883 91° East 415 478 27,400 677 Climbing Chicago Center
Tue 03:12:06 PM 42.1350 -85.1303 91° East 421 484 28,100 677 Climbing Chicago Center
Tue 03:13:08 PM 42.1319 -84.9756 91° East 419 482 28,800 726 Climbing Chicago Center
Tue 03:14:10 PM 42.1289 -84.7869 91° East 420 483 29,600 726 Climbing Chicago Center
Tue 03:15:12 PM 42.1261 -84.6294 91° East 422 486 30,300 677 Climbing Chicago Center
Tue 03:16:14 PM 42.1236 -84.4694 91° East 428 493 31,000 672 Climbing Chicago Center
Tue 03:17:17 PM 42.1414 -84.3058 82° East 439 505 31,700 672 Climbing Chicago Center
Tue 03:18:19 PM 42.1594 -84.1297 82° East 437 503 32,400 639 Climbing Cleveland Center
Tue 03:19:19 PM 42.1772 -83.9597 82° East 442 509 33,000 350 Climbing Cleveland Center
Tue 03:20:19 PM 42.1967 -83.7897 81° East 453 521 33,100 450 Climbing Cleveland Center
Tue 03:21:19 PM 42.2117 -83.6139 83° East 459 528 33,900 800 Climbing Cleveland Center
Tue 03:22:19 PM 42.2103 -83.4231 90° East 463 533 34,700 550 Climbing Cleveland Center
Tue 03:23:19 PM 42.2019 -83.2489 94° East 463 533 35,000 150 Climbing Cleveland Center
Tue 03:24:19 PM 42.1956 -83.0692 93° East 469 540 35,000  Level Cleveland Center
Tue 03:25:19 PM 42.1869 -82.8922 94° East 474 545 35,000  Level Cleveland Center
Tue 03:26:19 PM 42.1797 -82.7156 93° East 474 545 35,000  Level Cleveland Center
Tue 03:27:19 PM 42.1725 -82.5358 93° East 474 545 35,000  Level Cleveland Center
Tue 03:28:19 PM 42.1650 -82.3619 93° East 474 545 35,000  Level Cleveland Center
Tue 03:29:19 PM 42.1550 -82.1853 94° East 474 545 35,000  Level Cleveland Center
Tue 03:30:19 PM 42.1489 -82.0228 93° East 474 545 35,000  Level Cleveland Center
Tue 03:31:19 PM 42.1406 -81.8433 94° East 485 558 35,000  Level Cleveland Center
Tue 03:32:19 PM 42.1322 -81.6472 93° East 480 552 35,000  Level Cleveland Center
Tue 03:33:19 PM 42.1211 -81.4678 95° East 480 552 35,000  Level Cleveland Center
Tue 03:34:19 PM 42.1119 -81.2858 94° East 480 552 35,000  Level Cleveland Center
Tue 03:35:19 PM 42.1006 -81.1064 95° East 480 552 35,000  Level Cleveland Center
Tue 03:36:19 PM 42.0886 -80.9189 95° East 485 558 35,000 -50 Level Cleveland Center
Tue 03:37:19 PM 42.0786 -80.7369 94° East 485 558 34,900 -500 Descending Cleveland Center
Tue 03:38:19 PM 42.0683 -80.5581 94° East 485 558 34,000 -850 Descending Cleveland Center
Tue 03:39:19 PM 42.0578 -80.3958 95° East 485 558 33,200 -500 Descending Cleveland Center
Tue 03:40:19 PM 42.0447 -80.2169 96° East 480 552 33,000 -100 Descending Cleveland Center
Tue 03:41:19 PM 42.0336 -80.0381 95° East 480 552 33,000  Level Cleveland Center
Tue 03:42:19 PM 42.0222 -79.8619 95° East 480 552 33,000 -50 Level Cleveland Center
Tue 03:43:19 PM 42.0086 -79.6806 96° East 480 552 32,900  Descending Cleveland Center
Tue 03:44:19 PM 42.0361 -79.4956 79° East 486 559 33,000 50 Climbing Cleveland Center
Tue 03:45:19 PM 42.0697 -79.3078 76° East 496 571 33,000  Level Cleveland Center
Tue 03:46:19 PM 42.0989 -79.1253 78° East 501 577 33,000 -50 Level Cleveland Center
Tue 03:47:19 PM 42.1297 -78.9397 77° East 501 577 32,900  Descending Cleveland Center
Tue 03:48:19 PM 42.1603 -78.7569 77° East 501 577 33,000 50 Climbing Cleveland Center
Tue 03:49:19 PM 42.1928 -78.5794 76° East 495 570 33,000  Level Cleveland Center
Tue 03:50:19 PM 42.2206 -78.3989 78° East 489 563 33,000 -550 Level Cleveland Center
Tue 03:51:19 PM 42.2294 -78.2164 86° East 483 556 31,900 -1,550 Descending Cleveland Center
Tue 03:52:19 PM 42.2092 -78.0433 99° East 469 540 29,900 -2,010 Descending Cleveland Center
Tue 03:54:39 PM 42.0711 -77.6633 116° Southeast 461 531 25,200 -2,010 Descending New York Center
Tue 03:55:39 PM 42.0178 -77.5069 115° Southeast 466 536 23,200 -1,967 Descending New York Center
Tue 03:56:41 PM 41.9658 -77.3567 115° Southeast 460 529 21,200 -1,902 Descending New York Center
Tue 03:57:42 PM 41.9175 -77.2097 114° Southeast 448 516 19,300 -1,119 Descending New York Center
Tue 03:58:39 PM 41.8672 -77.0628 115° Southeast 437 503 19,000 -513 Descending New York Center
Tue 03:59:39 PM 41.8247 -76.9194 112° Southeast 432 497 18,300 -1,756 Descending New York Center
Tue 04:00:42 PM 41.8239 -76.7692 90° East 409 471 15,400 -3,050 Descending New York Center
Tue 04:01:39 PM 41.8722 -76.6369 64° Northeast 382 440 12,200 -2,441 Descending New York Center
Tue 04:02:40 PM 41.8678 -76.5139 93° East 375 432 10,600 -1,339 Descending New York Center
Tue 04:03:40 PM 41.8481 -76.4036 103° East 326 375 9,500 -793 Descending New York Center
Tue 04:04:41 PM 41.8258 -76.2989 106° East 304 350 9,000 -248 Descending New York Center
Tue 04:05:41 PM 41.8125 -76.1864 99° East 282 325 9,000  Level New York Center
Tue 04:06:42 PM 41.7942 -76.0819 103° East 282 325 9,000  Level New York Center
Tue 04:07:39 PM 41.7844 -75.9756 97° East 289 333 9,000  Level New York Center
Tue 04:08:40 PM 41.7758 -75.8803 97° East 289 333 9,000  Level New York Center
Tue 04:09:40 PM 41.7625 -75.7569 98° East 295 339 9,000  Level New York Center
Tue 04:10:40 PM 41.7392 -75.6689 110° East 290 334 9,000 -50 Level New York Center
Tue 04:11:41 PM 41.6967 -75.5825 123° Southeast 282 325 8,900 -992 Descending New York Center
Tue 04:12:41 PM 41.6225 -75.5689 172° South 236 272 7,000 -1,884 Descending New York Center
Tue 04:13:42 PM 41.5583 -75.5558 171° South 230 265 5,100 -1,475 Descending New York Center
Tue 04:14:39 PM 41.5033 -75.5769 196° South 212 244 4,100 -1,053 Descending New York Center

Login

Don't have an account? Register now (free) for customized features, flight alerts, and more!